This is the latest recevied weather packets stored in our database for station/object VE7GEL. If no packets are shown the sender has not sent any weather packets the latest 10 day(s).
| Time | Temp. | Humidity | Pressure | Rain* | Wind** | Luminosity | Snow |
|---|---|---|---|---|---|---|---|
| 1777964402 | 16.67° C | 57% | 1009.8 hPa | 0 mm | - | 0 W/m² | - |
| 1777963626 | 16.67° C | 56% | 1009.5 hPa | 0 mm | - | 0 W/m² | - |
| 1777963503 | 16.67° C | 57% | 1009.7 hPa | 0 mm | - | 0 W/m² | - |
| 1777962726 | 16.67° C | 56% | 1009.2 hPa | 0 mm | - | 0 W/m² | - |
| 1777961828 | 16.67° C | 56% | 1009.2 hPa | 0 mm | - | 0 W/m² | - |
| 1777961702 | 16.67° C | 56% | 1009.5 hPa | 0 mm | - | 0 W/m² | - |
| 1777960924 | 16.67° C | 60% | 1009.2 hPa | 0 mm | - | 0 W/m² | - |
| 1777960020 | 16.67° C | 60% | 1009.1 hPa | 0 mm | - | 0 W/m² | - |
| 1777959904 | 16.67° C | 59% | 1009.3 hPa | 0 mm | - | 0 W/m² | - |
| 1777959121 | 16.67° C | 61% | 1009 hPa | 0 mm | - | 0 W/m² | - |
| 1777958221 | 16.67° C | 62% | 1009 hPa | 0 mm | - | 0 W/m² | - |
| 1777958102 | 16.67° C | 63% | 1009.2 hPa | 0 mm | - | 0 W/m² | - |
| 1777957322 | 16.67° C | 64% | 1008.9 hPa | 0 mm | - | 0 W/m² | - |
| 1777957202 | 16.67° C | 63% | 1009.1 hPa | 0 mm | - | 0 W/m² | - |
| 1777956418 | 16.67° C | 63% | 1008.7 hPa | 0 mm | - | 0 W/m² | - |
| 1777955519 | 16.67° C | 60% | 1008.6 hPa | 0 mm | - | 0 W/m² | - |
| 1777955402 | 16.67° C | 63% | 1008.9 hPa | 0 mm | - | 0 W/m² | - |
| 1777954618 | 17.78° C | 55% | 1008.5 hPa | 0 mm | - | 0 W/m² | - |
| 1777954502 | 17.78° C | 55% | 1008.9 hPa | 0 mm | - | 0 W/m² | - |
| 1777953719 | 18.33° C | 55% | 1008.5 hPa | 0 mm | - | 0 W/m² | - |
| 1777952817 | 18.33° C | 54% | 1008.3 hPa | 0 mm | - | 0 W/m² | - |
| 1777952702 | 18.33° C | 53% | 1008.6 hPa | 0 mm | - | 0 W/m² | - |
| 1777951918 | 18.89° C | 54% | 1008.3 hPa | 0 mm | - | 3 W/m² | - |
| 1777951802 | 18.89° C | 53% | 1008.5 hPa | 0 mm | - | 3 W/m² | - |
| 1777951017 | 19.44° C | 51% | 1008.1 hPa | 0 mm | - | 6 W/m² | - |
* Rain latest hour (hover to see other rain measurements)
** Current wind speed in m/s (hover to see current wind gust speed)